Regional Weather Roundup
Issued by NWS Newport/Morehead, NC

Current Version | Previous Version | Graphics & Text | Print | Product List | Glossary On
Versions: 1 2 3 4 5 6 7 8 9 10 11 12 13 14 15 16 17 18 19 20 21 22 23 24 25 26 27 28 29 30 31 32 33 34 35 36 37 38 39 40 41 42 43 44 45 46 47 48 49 50
000 ASUS42 KMHX 031425 RWRMHX WEATHER ROUNDUP FOR EASTERN NORTH CAROLINA NATIONAL WEATHER SERVICE NEWPORT/MOREHEAD CITY NC 1000 AM EDT FRI JUL 03 2015 NOTE: "FAIR" INDICATES FEW OR NO CLOUDS BELOW 12,000 FEET WITH NO SIGNIFICANT WEATHER AND/OR OBSTRUCTIONS TO VISIBILITY NCZ015>017-031-032-045>047-102-103-031500- NORTH COAST CITY SKY/WX TMP DP RH WIND PRES REMARKS EDENTON CLOUDY 76 70 82 NE5 29.98S ELIZABETH CITY MOSUNNY 78 68 71 NE6 29.98S KITTY HAWK CLOUDY 75 72 89 NE3 29.97R MANTEO CLOUDY 74 71 90 NE7 29.98S $$ NCZ045>047-081-094-103-104-031500- CENTRAL COAST CITY SKY/WX TMP DP RH WIND PRES REMARKS FRISCO MOSUNNY 78 70 76 SW10 29.99R SWANQUARTER N/A 77 N/A N/A W7 29.94S $$ NCZ095-097-098-100-101-031500- SOUTHERN COAST CITY SKY/WX TMP DP RH WIND PRES REMARKS BEAUFORT MOSUNNY 79 70 74 W13 30.00R CEDAR ISLAND N/A 79 N/A N/A SW7G13 30.03S JACKSONVILLE CLOUDY 76 69 79 W7 30.00S PINEY ISLAND MOSUNNY N/A N/A N/A W9 29.99S WILMINGTON PTSUNNY 76 71 85 SW8 29.99F $$ NCZ011>013-027>030-043-044-078>080-089-090>093-098-031500- COASTAL PLAIN CITY SKY/WX TMP DP RH WIND PRES REMARKS AHOSKIE MOSUNNY 75 68 78 SE3 29.99R CLINTON PTSUNNY 74 71 89 S5 29.99S ELIZABETHTOWN CLOUDY 73 73 98 SW3 29.99F FOG GOLDSBORO CLOUDY 75 70 83 S8 29.96F GREENVILLE PTSUNNY 77 72 83 CALM 30.00S HAVELOCK CLOUDY 77 68 73 W9 30.01S KENANSVILLE PTSUNNY 74 67 80 CALM 29.99F KINSTON PTSUNNY 77 70 78 S6 30.00S NEW BERN CLOUDY 78 69 73 W7 30.01R RICHLANDS CLOUDY 73 66 78 SE6 29.98F ROCKY MOUNT PTSUNNY 78 72 81 VRB5 29.98S HAZE WASHINGTON MOSUNNY 76 71 84 CALM 30.00R WHITEVILLE CLOUDY 73 70 90 SW3 29.99F $$ AMZ130-135-150-152-154-156-158-170-250-252-270-ANZ085-086-088-633-658-670-031500- MARINE OBSERVATIONS STATION/POSITION TIME TEMP WIND PRES WAVE SWELL AIR SEA DIR/SP/G HT/PER HT/PER (UTC) (F) (DEG/KT/KT) (MB) (FT/S) (FT/S) CHESAPEAKE LIGHT 1400 73 50/ 7/ 7 1016.0 64 E VA BEACH 1350 74 76 40/ 8/ 10 1014.2 5/ 7 5/ 7 DUCK 1400 74 71 30/ 8/ 9 1014.2 2 E DUCK 1311 72 N/A 2/ 7 OREGON INLET 1400 74 81 10/ 3/ 4 1015.1 13E OREGON INLT 1400 73 N/A 4/ 7 2/15 HATTERAS CG 1400 79 78 240/ 8/ 12 1015.0 DIAMOND BUOY 1350 77 83 260/ 16/ 17 1015.1 6/ 7 3/ 7 CAPE LOOKOUT 1400 78 270/ 15/ 18 1015.7 BEAUFORT LAB 1400 78 80 270/ 5/ 10 1015.3 30 SE NEW RVR IN 1308 79 80 270/ 14/ 17 1016.3 27 SE WRIGHTSVLE 1400 80 270/ 8/ 12 N/A 5 SE WRIGHTSVLE 1308 77 79 290/ 10/ 14 1016.2 225 S CAPE HAT 1350 82 80 240/ 16/ 17 1019.0 6/ 7 41 SE CHARLESTON 1350 80 81 240/ 17/ 21 1016.5 5/ 6 2/ 9 $$

USA.gov is the U.S. government's official web portal to all federal, state and local government web resources and services.